#datint,netname,site,siteID,timestamp,IntT,BattV,AirT2,AirT,AirT_Avg,AirT_Max,AirT_Min,RH_Avg,RH_Max,RH_Min,EA_Avg,Td_Avg,Td_Max,Td_Min,WindS_Smp,WindS_Avg,WindD_Avg,WindD_SD,WindS_Max,ETo,ETr,SoilT4,SoilT8,SoilVWC8,SolarW_Avg,wetstate_Avg,wetT_Avg,Precip_accum,Precip_WPG,Precip_TB
15min,AgWx,beryljct,423,31MAR2019:00:00:00,32.8,12.9,34.6,33.9,33.5,34.2,33.0,68,69,66,0.452,24.2,24.7,23.3,3.223,1.8,338,13,3.2,-0.00011,-0.00013,.,46.1,25,0,0,35.6,13.00,0.00,0.00
15min,AgWx,beryljct,423,31MAR2019:00:15:00,32.6,12.76,34.1,33.5,33.8,34.1,33.3,69,71,68,0.459,24.7,25.1,24.2,0.899,2.3,324,17,3.5,-0.00008,-0.00009,.,46.1,25,0,0,35.9,13.00,0.00,0.00
15min,AgWx,beryljct,423,31MAR2019:00:30:00,32.3,12.89,34.5,33.3,33.4,33.7,33.1,71,72,70,0.461,25.0,25.4,24.3,2.061,1.9,333,24,3.0,-0.00011,-0.00013,.,46.1,25,0,0,35.5,13.00,0.00,0.00
15min,AgWx,beryljct,423,31MAR2019:00:45:00,32.1,12.86,32.9,32.6,33.3,33.6,32.6,72,73,71,0.451,25.2,25.7,24.6,1.447,1.5,330,18,2.3,-0.00013,-0.00017,.,46.0,25,0,0,35.4,13.00,0.00,0.00
15min,AgWx,beryljct,423,31MAR2019:01:00:00,31.6,12.87,32.7,31.9,32.3,32.8,31.8,74,75,72,0.456,24.9,25.3,24.6,2.499,1.7,350,11,2.7,-0.00012,-0.00015,.,46.0,25,0,0,35.7,13.00,0.00,0.00
15min,AgWx,beryljct,423,31MAR2019:01:15:00,31.4,12.85,32.6,31.9,31.9,32.1,31.7,75,75,74,0.457,24.8,25.1,24.6,2.105,3.2,314,7.2,3.9,-0.00006,-0.00006,.,46.0,25,0,0,35.5,13.00,0.00,0.00
15min,AgWx,beryljct,423,31MAR2019:01:30:00,31.2,12.83,32.3,31.2,31.7,32.1,31.0,75,76,74,0.451,24.8,25.3,23.9,0.438,2.2,297,12,3.5,-0.00010,-0.00011,.,45.9,25,0,0,35.6,13.00,0.00,0.00
15min,AgWx,beryljct,423,31MAR2019:01:45:00,30.8,12.83,32.4,32.0,31.9,32.2,31.0,76,77,75,0.457,25.1,25.5,24.3,2.543,0.9,336,17,2.5,-0.00017,-0.00024,.,45.9,25,0,0,35.5,13.00,0.00,0.00
15min,AgWx,beryljct,423,31MAR2019:02:00:00,30.6,12.7,30.1,30.6,31.5,32.2,30.6,76,78,73,0.436,24.8,25.5,23.3,3.661,2.4,341,16,3.7,-0.00009,-0.00011,.,45.8,25,0,0,35.7,13.00,0.00,0.00
15min,AgWx,beryljct,423,31MAR2019:02:15:00,30.5,12.81,31.1,30.9,30.8,31.2,30.3,78,79,76,0.455,24.7,25.5,23.7,3.069,3.9,327,9.3,4.6,-0.00004,-0.00004,.,45.8,25,0,0,35.6,13.00,0.00,0.00
15min,AgWx,beryljct,423,31MAR2019:02:30:00,30.3,12.8,31.1,30.7,30.6,31.2,30.0,79,80,77,0.447,24.8,25.5,23.7,2.916,2.9,330,11,3.6,-0.00008,-0.00009,.,45.7,25,0,0,35.8,13.01,0.00,0.00
15min,AgWx,beryljct,423,31MAR2019:02:45:00,30.1,12.8,31.4,31.1,31.1,31.4,30.6,79,80,77,0.461,25.2,25.6,24.5,2.565,2.4,2.1,19,3.5,-0.00010,-0.00011,.,45.6,25,0,0,35.9,13.00,0.00,0.00
15min,AgWx,beryljct,423,31MAR2019:03:00:00,30.0,12.79,29.5,29.3,30.3,31.1,29.2,80,82,78,0.446,24.7,25.4,24.0,1.008,2.2,1.2,11,3.1,-0.00010,-0.00013,.,45.6,25,0,0,35.4,13.01,0.00,0.00
15min,AgWx,beryljct,423,31MAR2019:03:15:00,29.6,12.78,29.8,29.7,29.6,29.8,29.1,82,83,81,0.456,24.7,25.0,24.1,2.477,1.8,347,10,2.8,-0.00013,-0.00016,.,45.5,25,0,0,35.5,13.00,0.00,0.00
15min,AgWx,beryljct,423,31MAR2019:03:30:00,29.3,12.77,27.8,28.4,29.3,29.9,28.4,82,84,81,0.433,24.5,25.2,23.5,2.368,2.2,346,16,3.4,-0.00011,-0.00013,.,45.5,26,0,0,35.6,13.01,0.00,0.00
15min,AgWx,beryljct,423,31MAR2019:03:45:00,28.8,12.76,28.1,27.8,27.9,28.2,27.6,84,85,82,0.437,23.6,24.0,23.3,0,1.0,348,5.7,2.4,-0.00016,-0.00022,.,45.4,25,0,0,35.7,13.01,0.00,0.00
15min,AgWx,beryljct,423,31MAR2019:04:00:00,28.1,12.75,29.9,29.1,28.3,29.1,27.8,85,86,85,0.460,24.4,25.2,23.8,0,0.1,349,3.4,0.8,-0.00021,-0.00033,.,45.3,25,0,0,35.8,13.01,0.00,0.00
15min,AgWx,beryljct,423,31MAR2019:04:15:00,28.0,12.75,30.2,29.4,29.4,29.7,29.1,84,85,83,0.462,25.2,25.6,24.7,0,0.2,338,0.0,0.8,-0.00021,-0.00033,.,45.3,26,0,0,35.5,13.01,0.00,0.00
15min,AgWx,beryljct,423,31MAR2019:04:30:00,28.0,12.75,30.5,30.0,30.1,30.5,29.4,83,84,82,0.460,25.6,26.0,25.1,1.644,0.7,317,28,1.8,-0.00018,-0.00026,.,45.2,25,0,0,35.5,13.01,0.00,0.00
15min,AgWx,beryljct,423,31MAR2019:04:45:00,27.9,12.73,24.4,26.3,28.7,30.1,26.3,83,85,81,0.407,24.1,25.3,22.2,1.863,2.2,354,26,3.9,-0.00011,-0.00013,.,45.1,25,0,0,35.7,13.01,0.00,0.00
15min,AgWx,beryljct,423,31MAR2019:05:00:00,27.5,12.73,29.3,27.2,26.7,27.7,25.5,86,89,83,0.435,23.1,24.8,21.1,1.71,1.9,317,7.7,3.8,-0.00012,-0.00015,.,45.1,25,0,0,35.6,13.01,0.00,0.00
15min,AgWx,beryljct,423,31MAR2019:05:15:00,27.0,12.73,29.6,28.4,27.7,28.4,26.9,86,87,84,0.449,24.0,24.6,23.1,0.702,1.6,335,19,2.4,-0.00013,-0.00017,.,45.1,25,0,0,35.5,13.01,0.00,0.00
15min,AgWx,beryljct,423,31MAR2019:05:30:00,26.6,12.72,27.5,26.7,27.5,28.7,26.4,84,86,82,0.418,23.3,24.7,22.1,0.833,0.8,340,12,2.1,-0.00017,-0.00024,.,44.9,25,0,0,35.7,13.01,0.00,0.00
15min,AgWx,beryljct,423,31MAR2019:05:45:00,26.1,12.72,26.9,26.7,27.0,27.3,26.7,85,86,84,0.412,23.1,23.4,22.4,0.482,0.8,352,1.4,1.5,-0.00017,-0.00024,.,44.9,25,0,0,35.6,13.01,0.00,0.00
15min,AgWx,beryljct,423,31MAR2019:06:00:00,25.6,12.71,27.4,26.8,26.1,26.8,25.4,86,87,84,0.431,22.4,23.5,21.6,0,0.0,352,0.8,0.5,-0.00021,-0.00034,.,44.8,26,0,0,35.7,13.01,0.00,0.00
15min,AgWx,beryljct,423,31MAR2019:06:15:00,25.7,12.57,26.1,28.0,27.7,28.5,26.8,86,87,83,0.438,23.9,24.7,22.6,2.105,1.8,291,8.8,2.9,-0.00012,-0.00016,.,44.7,25,0,0,35.5,13.01,0.00,0.00
15min,AgWx,beryljct,423,31MAR2019:06:30:00,25.9,12.69,23.2,24.1,27.6,29.1,24.1,84,87,78,0.362,23.4,25.5,18.8,1.14,2.1,276,4.8,3.1,-0.00011,-0.00014,.,44.7,26,0,0,35.5,13.01,0.00,0.00
15min,AgWx,beryljct,423,31MAR2019:06:45:00,25.6,12.7,27.8,27.8,25.9,27.9,24.0,87,89,82,0.449,22.5,24.9,19.4,1.381,2.0,299,6.1,3.1,0.00004,0.00007,.,44.6,25,0,0,35.7,13.01,0.00,0.00
15min,AgWx,beryljct,423,31MAR2019:07:00:00,25.3,12.7,27.0,26.7,26.6,28.1,25.4,87,89,85,0.432,23.1,24.8,21.5,2.784,1.6,295,8.2,3.4,0.00004,0.00006,.,44.6,25,0,0,35.4,13.01,0.00,0.00
15min,AgWx,beryljct,423,31MAR2019:07:15:00,25.2,12.67,28.6,27.4,26.9,28.4,25.1,87,90,82,0.436,23.5,25.5,20.5,0.548,1.6,293,4.5,3.6,0.00004,0.00006,.,44.5,25,1,0,35.5,13.01,0.00,0.00
15min,AgWx,beryljct,423,31MAR2019:07:30:00,25.0,12.7,27.0,26.1,26.8,27.9,25.1,86,88,84,0.423,23.2,24.5,21.2,1.074,0.9,313,7.7,1.9,0.00005,0.00006,.,44.4,25,6,0,35.7,13.01,0.00,0.00
15min,AgWx,beryljct,423,31MAR2019:07:45:00,24.8,12.74,26.7,25.1,25.9,28.2,23.7,87,90,83,0.411,22.6,25.5,20.2,0,0.8,354,68,2.8,0.00013,0.00015,.,44.4,25,30,0,35.6,13.01,0.00,0.00
15min,AgWx,beryljct,423,31MAR2019:08:00:00,24.9,12.78,25.8,25.3,25.0,25.6,23.6,89,90,87,0.410,22.1,23.0,20.3,0.373,0.2,112,0.1,1.3,0.00028,0.00030,.,44.3,26,79,0,39.0,13.01,0.00,0.00
15min,AgWx,beryljct,423,31MAR2019:08:15:00,26.0,12.83,28.4,27.6,26.9,27.7,25.3,88,91,87,0.450,23.9,24.9,22.3,1.666,1.6,1.3,33,2.4,0.00041,0.00046,.,44.2,25,123,0,42.6,13.01,0.00,0.00
15min,AgWx,beryljct,423,31MAR2019:08:30:00,28.0,12.91,32.2,31.0,29.1,31.0,27.7,88,89,87,0.511,26.1,27.6,24.6,2.105,1.2,355,0.6,2.1,0.00058,0.00064,.,44.1,25,170,0,48.1,13.01,0.00,0.00
15min,AgWx,beryljct,423,31MAR2019:08:45:00,30.4,13.04,32.4,32.1,31.7,32.2,31.0,84,87,82,0.507,27.4,27.7,27.0,2.872,1.9,31,22,3.6,0.00079,0.00088,.,44.1,25,222,0,52.9,13.00,0.00,0.00
15min,AgWx,beryljct,423,31MAR2019:09:00:00,32.7,13.33,33.0,32.2,32.1,32.4,31.8,83,83,82,0.503,27.4,27.8,27.0,0.175,2.4,97,13,4.3,0.00098,0.00109,.,44.0,25,275,0,55.7,13.00,0.00,0.00
15min,AgWx,beryljct,423,31MAR2019:09:15:00,34.6,13.75,34.0,33.5,33.0,33.6,32.2,82,83,81,0.530,27.9,28.9,27.3,3.727,1.9,114,27,3.9,0.00121,0.00132,.,43.9,25,328,0,61.9,13.00,0.00,0.00
15min,AgWx,beryljct,423,31MAR2019:09:30:00,36.5,14.68,38.0,37.0,35.3,37.2,33.5,78,82,71,0.550,28.9,29.8,28.0,7.103,3.7,88,56,8.7,0.00144,0.00162,.,43.8,25,383,0,61.3,13.01,0.00,0.00
15min,AgWx,beryljct,423,31MAR2019:09:45:00,38.5,14.66,38.7,38.3,37.9,38.7,37.1,72,74,69,0.541,29.6,30.4,28.9,7.432,6.8,62,11,9.5,0.00169,0.00200,.,43.8,25,436,0,57.5,13.00,0.00,0.00
15min,AgWx,beryljct,423,31MAR2019:10:00:00,40.6,14.66,39.2,38.8,38.7,39.2,38.3,69,72,67,0.538,29.5,30.5,28.8,4.582,7.0,62,13,10.4,0.00192,0.00227,.,43.7,25,488,0,58.7,13.00,0.00,0.00
15min,AgWx,beryljct,423,31MAR2019:10:15:00,42.3,14.54,39.8,39.4,39.1,39.6,38.7,65,70,63,0.521,28.5,30.4,27.6,1.403,5.7,60,16,9.9,0.00218,0.00254,.,43.6,25,537,0,61.6,13.00,0.00,0.00
15min,AgWx,beryljct,423,31MAR2019:10:30:00,44.0,14.61,39.4,40.8,39.9,40.9,39.3,64,67,62,0.555,28.7,30.2,27.6,5.524,5.5,61,23,9.6,0.00241,0.00279,.,43.6,25,585,0,64.6,13.00,0.00,0.00
15min,AgWx,beryljct,423,31MAR2019:10:45:00,45.5,14.51,40.2,41.7,41.0,42.1,40.2,61,65,58,0.530,28.7,30.2,27.3,7.914,5.8,56,18,10.8,0.00265,0.00309,.,43.5,25,630,0,66.0,13.00,0.00,0.00
15min,AgWx,beryljct,423,31MAR2019:11:00:00,46.5,14.57,42.5,42.4,41.9,42.6,41.2,58,62,55,0.529,28.1,29.7,26.9,7.958,8.5,35,15,13.3,0.00269,0.00326,.,43.5,25,629,0,62.4,13.00,0.00,0.00
15min,AgWx,beryljct,423,31MAR2019:11:15:00,47.3,14.49,42.4,43.3,43.3,44.1,42.4,57,59,54,0.518,29.0,30.4,27.5,11.11,9.9,47,17,14.3,0.00306,0.00371,.,43.4,25,720,0,63.6,13.00,0.00,0.00
15min,AgWx,beryljct,423,31MAR2019:11:30:00,48.4,14.44,44.9,45.4,44.2,45.4,42.9,55,58,52,0.580,29.0,30.8,27.2,12.23,8.8,51,18,14.3,0.00345,0.00412,.,43.4,25,803,0,67.2,12.99,0.00,0.00
15min,AgWx,beryljct,423,31MAR2019:11:45:00,49.0,14.44,45.0,44.2,44.5,45.4,43.8,53,56,51,0.506,28.3,30.1,26.7,8.97,9.1,51,15,14.2,0.00250,0.00315,.,43.3,25,494,0,59.8,12.99,0.00,0.00
15min,AgWx,beryljct,423,31MAR2019:12:00:00,49.1,14.56,46.0,45.5,45.1,46.0,44.3,50,53,47,0.513,27.8,29.4,25.4,11.44,8.3,44,31,17.2,0.00271,0.00338,.,43.3,25,536,0,59.9,12.99,0.00,0.00
15min,AgWx,beryljct,423,31MAR2019:12:15:00,49.3,14.01,48.2,47.4,45.8,47.4,44.5,49,52,46,0.541,27.9,30.0,26.3,11.22,11.2,58,17,17.7,0.00327,0.00410,.,43.3,25,692,0,61.6,12.99,0.00,0.00
15min,AgWx,beryljct,423,31MAR2019:12:30:00,50.3,14.02,48.3,47.3,47.1,48.2,46.0,48,53,46,0.535,28.6,31.6,26.8,8.46,10.7,57,19,16.8,0.00376,0.00463,.,43.3,25,805,0,66.4,12.99,0.00,0.00
15min,AgWx,beryljct,423,31MAR2019:12:45:00,51.6,13.99,48.3,48.2,47.8,48.5,46.8,48,52,45,0.554,29.0,31.8,26.8,10.52,10.7,57,24,18.6,0.00445,0.00537,.,43.3,25,975,0,69.7,12.98,0.00,0.00
15min,AgWx,beryljct,423,31MAR2019:13:00:00,52.7,13.97,50.3,48.4,48.3,49.3,47.2,46,52,41,0.544,28.4,32.3,25.5,8.42,11.5,74,11,17.6,0.00439,0.00539,.,43.2,25,950,0,69.0,12.98,0.00,0.00
15min,AgWx,beryljct,423,31MAR2019:13:15:00,53.6,13.97,49.5,49.3,49.2,50.1,47.7,44,50,39,0.509,28.3,31.9,24.6,10.87,10.6,73,23,17.4,0.00430,0.00529,.,43.3,25,895,0,69.1,12.98,0.00,0.00
15min,AgWx,beryljct,423,31MAR2019:13:30:00,54.3,13.93,51.2,48.9,49.3,50.4,48.4,41,47,37,0.463,26.4,30.9,23.2,8.64,11.3,63,25,15.2,0.00493,0.00604,.,43.3,25,1035,0,70.3,12.98,0.00,0.00
15min,AgWx,beryljct,423,31MAR2019:13:45:00,54.6,13.94,49.4,49.2,49.3,50.0,48.6,37,42,33,0.454,24.0,26.9,21.2,7.3,9.8,46,24,16.2,0.00473,0.00580,.,43.3,25,959,0,69.4,12.98,0.00,0.00
15min,AgWx,beryljct,423,31MAR2019:14:00:00,54.9,14.04,49.8,48.9,49.4,50.7,48.5,36,43,29,0.399,23.5,27.7,18.2,0.723,8.0,62,21,14.3,0.00464,0.00562,.,43.3,25,928,0,69.8,12.97,0.00,0.00
15min,AgWx,beryljct,423,31MAR2019:14:15:00,55.4,13.88,50.2,50.0,50.4,51.4,49.0,39,43,33,0.413,26.1,28.7,21.9,6.182,8.9,56,22,15.3,0.00462,0.00562,.,43.4,25,915,0,70.0,12.97,0.00,0.00
15min,AgWx,beryljct,423,31MAR2019:14:30:00,56.1,13.92,49.9,50.2,50.2,50.8,49.5,34,39,30,0.444,23.0,26.5,20.0,7.322,8.4,39,36,15.5,0.00460,0.00563,.,43.5,25,898,0,68.6,12.97,0.00,0.00
15min,AgWx,beryljct,423,31MAR2019:14:45:00,56.6,13.88,50.7,50.3,50.3,51.1,49.8,34,39,29,0.384,23.1,26.7,19.3,5.744,7.9,42,31,13.8,0.00451,0.00550,.,43.5,25,876,0,67.5,12.97,0.00,0.00
15min,AgWx,beryljct,423,31MAR2019:15:00:00,57.1,13.91,51.4,51.1,50.9,52.1,50.2,34,41,30,0.444,23.4,29.2,20.6,8.48,8.5,49,22,17.4,0.00451,0.00555,.,43.6,25,866,0,67.6,12.96,0.00,0.00
15min,AgWx,beryljct,423,31MAR2019:15:15:00,57.5,13.86,50.7,51.0,51.1,52.0,50.5,36,39,32,0.417,24.8,27.3,22.4,8.9,9.1,59,26,13.6,0.00436,0.00542,.,43.7,25,834,0,65.9,12.96,0.00,0.00
15min,AgWx,beryljct,423,31MAR2019:15:30:00,58.0,13.85,52.2,51.7,51.6,53.0,50.4,35,40,29,0.522,24.6,29.2,19.8,5.371,7.6,45,25,16.5,0.00428,0.00525,.,43.8,25,805,0,66.9,12.96,0.00,0.00
15min,AgWx,beryljct,423,31MAR2019:15:45:00,58.4,13.81,52.6,51.9,51.8,53.0,50.4,36,41,30,0.398,25.6,30.1,20.8,0.11,7.0,66,28,13.5,0.00412,0.00504,.,43.9,25,775,0,65.4,12.96,0.00,0.00
15min,AgWx,beryljct,423,31MAR2019:16:00:00,58.7,13.83,51.9,52.0,52.0,52.6,51.6,33,40,29,0.454,23.9,28.8,20.5,15.83,8.4,39,28,16.5,0.00385,0.00487,.,43.9,25,702,0,64.9,12.96,0.00,0.00
15min,AgWx,beryljct,423,31MAR2019:16:15:00,59.0,13.88,53.6,52.9,52.4,53.7,51.9,34,41,29,0.494,24.8,30.8,21.0,4.516,8.1,32,21,17.5,0.00390,0.00491,.,44.1,25,708,0,62.7,12.96,0.00,0.00
15min,AgWx,beryljct,423,31MAR2019:16:30:00,59.1,13.88,52.6,52.7,52.3,52.9,51.3,34,40,30,0.505,24.9,29.0,20.8,9.82,8.0,54,20,14.6,0.00368,0.00466,.,44.2,25,666,0,62.2,12.96,0.00,0.00
15min,AgWx,beryljct,423,31MAR2019:16:45:00,59.2,13.77,52.8,51.9,52.3,52.8,51.8,33,36,29,0.443,23.9,26.5,20.6,3.135,8.7,52,21,16.7,0.00341,0.00445,.,44.3,25,599,0,60.8,12.96,0.00,0.00
15min,AgWx,beryljct,423,31MAR2019:17:00:00,59.2,13.78,52.8,52.9,52.6,53.3,51.9,33,37,30,0.477,24.2,27.2,21.1,10.06,8.7,42,19,14.1,0.00334,0.00436,.,44.4,25,580,0,59.6,12.96,0.00,0.00
15min,AgWx,beryljct,423,31MAR2019:17:15:00,59.0,13.79,51.9,52.7,52.5,53.1,52.0,33,36,30,0.451,24.2,27.0,21.9,8.18,8.3,75,16,13.6,0.00316,0.00414,.,44.5,25,545,0,58.9,12.96,0.00,0.00
15min,AgWx,beryljct,423,31MAR2019:17:30:00,58.8,13.78,52.1,52.0,52.5,53.2,51.9,33,38,30,0.410,24.1,28.0,21.6,8.42,7.2,65,19,12.9,0.00271,0.00358,.,44.6,25,464,0,57.9,12.96,0.00,0.00
15min,AgWx,beryljct,423,31MAR2019:17:45:00,58.3,13.8,52.7,52.3,52.1,52.5,51.8,33,38,31,0.461,24.1,27.0,22.5,7.366,7.8,63,15,11.8,0.00231,0.00321,.,44.7,25,377,0,55.7,12.96,0.00,0.00
15min,AgWx,beryljct,423,31MAR2019:18:00:00,57.8,13.82,51.9,52.0,52.3,52.8,52.0,33,38,30,0.421,24.1,27.5,21.6,6.971,7.8,61,12,11.3,0.00237,0.00327,.,44.8,25,388,0,55.8,12.96,0.00,0.00
15min,AgWx,beryljct,423,31MAR2019:18:15:00,57.4,13.82,52.7,52.1,52.2,52.5,51.9,33,36,30,0.481,23.8,26.3,21.1,4.231,7.0,58,22,10.7,0.00210,0.00293,.,44.9,25,342,0,55.4,12.96,0.00,0.00
15min,AgWx,beryljct,423,31MAR2019:18:30:00,57.0,13.84,52.1,51.8,52.0,52.2,51.8,33,36,31,0.421,23.8,26.3,22.3,6.029,8.0,70,22,12.6,0.00190,0.00278,.,45.0,25,286,0,54.6,12.96,0.00,0.00
15min,AgWx,beryljct,423,31MAR2019:18:45:00,56.4,13.84,51.8,51.5,51.7,52.0,51.5,33,37,30,0.431,23.5,26.0,21.3,4.976,6.3,71,19,9.6,0.00146,0.00218,.,45.1,25,228,0,53.8,12.96,0.00,0.00
15min,AgWx,beryljct,423,31MAR2019:19:00:00,55.6,13.84,51.1,50.5,51.1,51.5,50.5,34,38,30,0.460,23.8,26.0,21.3,7.914,6.7,67,9.0,9.7,0.00067,0.00085,.,45.2,25,178,0,52.7,12.96,0.00,0.00
15min,AgWx,beryljct,423,31MAR2019:19:15:00,54.6,13.27,49.7,49.7,50.3,50.8,49.7,35,38,33,0.445,23.8,25.4,22.5,5.239,6.3,65,10,9.1,0.00054,0.00070,.,45.3,25,118,0,50.7,12.96,0.00,0.00
15min,AgWx,beryljct,423,31MAR2019:19:30:00,52.9,13.21,47.6,48.1,49.2,49.7,48.1,37,39,35,0.445,23.9,24.9,22.8,3.924,4.1,76,15,6.9,0.00030,0.00043,.,45.4,25,67,0,48.0,12.97,0.01,0.00
15min,AgWx,beryljct,423,31MAR2019:19:45:00,51.0,13.15,49.5,48.1,47.6,48.1,47.2,38,40,35,0.397,23.4,24.4,21.6,4.121,4.4,74,6.0,5.6,0.00024,0.00034,.,45.5,25,31,0,45.9,12.97,0.00,0.00
15min,AgWx,beryljct,423,31MAR2019:20:00:00,49.0,13.1,47.1,46.4,46.9,48.4,45.9,38,40,34,0.402,22.3,23.5,21.6,1.447,3.0,85,1.9,4.4,0.00009,0.00015,.,45.6,25,8,0,44.0,12.97,0.00,0.00
15min,AgWx,beryljct,423,31MAR2019:20:15:00,46.8,13.07,44.8,43.6,45.4,46.8,43.3,39,43,37,0.407,22.1,22.6,21.6,0,0.4,87,0.7,1.5,-0.00028,-0.00041,.,45.6,26,1,0,40.0,12.98,0.01,0.00
15min,AgWx,beryljct,423,31MAR2019:20:30:00,44.6,13.08,45.4,44.6,44.4,44.8,43.8,40,42,39,0.397,21.7,22.1,21.5,0.986,0.2,87,0.3,1.3,-0.00030,-0.00047,.,45.7,25,0,0,37.9,12.97,0.00,0.00
15min,AgWx,beryljct,423,31MAR2019:20:45:00,43.0,13.06,43.8,43.2,43.8,44.5,43.2,41,42,40,0.398,21.6,21.8,21.4,2.521,1.3,67,12,2.6,-0.00013,-0.00016,.,45.8,25,0,0,38.8,12.98,0.00,0.00
15min,AgWx,beryljct,423,31MAR2019:21:00:00,41.8,13.05,40.7,41.5,42.2,43.2,41.5,44,46,42,0.404,21.9,22.1,21.5,0.986,2.2,66,3.8,3.3,-0.00003,-0.00001,.,45.8,26,0,0,38.7,12.98,0.00,0.00
15min,AgWx,beryljct,423,31MAR2019:21:15:00,40.6,13.02,42.5,42.0,41.3,42.0,40.5,45,48,44,0.396,21.8,22.3,21.4,0,0.1,69,0.7,1.0,-0.00030,-0.00047,.,45.9,25,0,0,35.8,12.98,0.00,0.00
15min,AgWx,beryljct,423,31MAR2019:21:30:00,39.7,13.02,42.5,42.0,41.8,42.5,41.3,44,45,43,0.391,21.4,21.6,21.2,0,0.1,71,0.8,1.0,-0.00031,-0.00048,.,45.9,25,0,0,35.7,12.98,0.00,0.00
15min,AgWx,beryljct,423,31MAR2019:21:45:00,39.1,13.02,41.3,41.0,41.6,42.0,41.0,44,44,43,0.387,21.2,21.5,20.9,1.973,1.6,46,12,2.7,-0.00010,-0.00012,.,46.0,25,0,0,37.1,12.98,0.00,0.00
15min,AgWx,beryljct,423,31MAR2019:22:00:00,38.7,13,38.0,37.7,39.3,41.0,37.7,48,51,44,0.391,21.0,21.3,20.8,4.165,3.6,56,8.7,4.9,0.00006,0.00010,.,46.0,26,0,0,37.0,12.98,0.00,0.00
15min,AgWx,beryljct,423,31MAR2019:22:15:00,38.2,13,38.0,37.5,37.4,37.7,37.2,53,54,51,0.399,21.8,22.0,21.3,3.814,4.0,72,3.6,5.3,0.00006,0.00009,.,46.0,25,0,0,35.7,12.98,0.00,0.00
15min,AgWx,beryljct,423,31MAR2019:22:30:00,37.5,12.86,36.0,34.7,36.3,37.6,34.5,56,61,52,0.392,21.9,22.5,21.3,0,3.4,65,5.0,5.9,0.00002,0.00005,.,46.1,25,0,0,35.6,12.99,0.00,0.00
15min,AgWx,beryljct,423,31MAR2019:22:45:00,36.8,12.98,40.2,37.8,36.3,38.0,34.7,53,57,51,0.398,20.9,21.6,20.1,3.617,3.1,286,22,4.4,0.00000,0.00003,.,46.1,25,0,0,36.1,12.99,0.00,0.00
15min,AgWx,beryljct,423,31MAR2019:23:00:00,36.2,12.97,32.1,33.5,36.4,38.3,33.5,55,58,50,0.376,21.5,22.6,20.3,0.658,1.3,266,0.6,3.3,-0.00013,-0.00017,.,46.1,25,0,0,35.6,12.99,0.00,0.00
15min,AgWx,beryljct,423,31MAR2019:23:15:00,35.4,12.94,34.2,33.6,33.7,35.5,32.6,59,62,55,0.394,20.8,22.2,20.2,1.885,2.7,304,9.5,3.5,-0.00003,-0.00002,.,46.1,25,0,0,35.5,12.99,0.00,0.00
15min,AgWx,beryljct,423,31MAR2019:23:30:00,34.4,12.92,30.6,30.1,31.6,33.6,30.1,64,67,60,0.352,20.7,21.9,18.7,2.302,0.9,302,3.6,2.3,-0.00016,-0.00023,.,46.0,26,0,0,35.4,12.99,0.00,0.00
15min,AgWx,beryljct,423,31MAR2019:23:45:00,33.3,12.91,31.7,30.3,29.6,30.6,28.9,66,68,62,0.386,19.6,20.9,18.6,6.314,4.4,316,6.6,6.4,0.00001,0.00003,.,46.0,25,0,0,35.5,13.00,0.00,0.00
15min,AgWx,beryljct,423,01APR2019:00:00:00,32.8,12.92,34.7,33.7,31.8,33.7,30.5,65,67,62,0.407,21.5,22.2,21.0,5.349,5.9,308,12,6.8,0.00006,0.00008,.,46.0,25,0,0,36.1,12.99,0.00,0.00
15min,AgWx,beryljct,423,01APR2019:00:15:00,33.1,12.92,35.0,33.8,34.8,35.6,33.8,59,62,57,0.395,22.0,22.6,20.8,4.626,4.7,298,12,6.2,0.00005,0.00008,.,46.0,25,0,0,35.7,12.99,0.00,0.00
15min,AgWx,beryljct,423,01APR2019:00:30:00,33.1,12.88,31.0,29.3,31.6,34.9,28.8,63,70,57,0.384,20.3,22.2,18.9,3.968,4.4,334,12,5.7,0.00003,0.00005,.,46.0,25,0,0,35.4,12.99,0.00,0.00
15min,AgWx,beryljct,423,01APR2019:00:45:00,32.8,12.89,32.3,32.7,33.3,35.4,29.5,62,70,56,0.401,21.5,22.3,20.5,4.998,4.5,289,18,6.0,0.00004,0.00006,.,45.9,25,0,0,35.8,12.99,0.00,0.00
15min,AgWx,bigpiney,439,31MAR2019:00:00:00,19.2,12.67,18.0,17.3,17.1,17.3,16.9,93,93,93,0.308,15.4,15.6,15.1,1.184,1.3,301,16,1.7,-0.00012,-0.00016,31.4,31.5,19,0,0,0.0,0.51,0.00,0.00
15min,AgWx,bigpiney,439,31MAR2019:00:15:00,19.1,12.66,17.6,17.1,17.1,17.4,16.8,93,93,92,0.305,15.4,15.7,15.0,1.096,1.0,290,8.9,1.3,-0.00013,-0.00018,31.4,31.5,19,0,0,0.0,0.51,0.00,0.00
15min,AgWx,bigpiney,439,31MAR2019:00:30:00,18.9,12.63,13.8,14.1,15.6,17.1,13.8,92,93,89,0.262,13.6,15.4,11.2,2.872,1.9,248,18,3.0,-0.00010,-0.00012,31.4,31.5,19,0,0,0.0,0.51,0.00,0.00
15min,AgWx,bigpiney,439,31MAR2019:00:45:00,18.3,12.64,16.1,14.4,13.9,14.8,12.6,91,93,89,0.268,11.8,13.1,10.1,1.973,3.1,235,7.9,3.9,-0.00007,-0.00008,31.4,31.5,19,0,0,0.0,0.51,0.00,0.00
15min,AgWx,bigpiney,439,31MAR2019:01:00:00,17.6,12.62,16.1,15.3,15.3,15.8,14.5,92,93,91,0.278,13.4,14.0,12.6,1.973,1.7,259,4.2,2.0,-0.00010,-0.00013,31.4,31.5,19,0,0,0.0,0.51,0.00,0.00
15min,AgWx,bigpiney,439,31MAR2019:01:15:00,17.1,12.61,11.9,12.1,14.5,15.7,12.1,90,92,88,0.232,12.2,13.8,9.2,3.529,2.3,232,20,4.1,-0.00008,-0.00010,31.4,31.5,19,0,0,0.0,0.51,0.00,0.00
15min,AgWx,bigpiney,439,31MAR2019:01:30:00,16.8,12.6,12.3,11.9,11.5,12.1,11.2,89,90,88,0.236,8.9,9.6,8.5,3.617,3.6,218,6.2,4.1,-0.00005,-0.00006,31.4,31.5,19,0,0,0.0,0.51,0.00,0.00
15min,AgWx,bigpiney,439,31MAR2019:01:45:00,16.4,12.58,14.2,14.6,13.6,16.1,11.6,91,94,89,0.266,11.5,14.6,9.1,1.25,2.0,254,18,3.9,-0.00009,-0.00011,31.4,31.5,19,0,0,0.0,0.51,0.00,0.00
15min,AgWx,bigpiney,439,31MAR2019:02:00:00,16.2,12.59,12.5,11.9,12.4,14.4,11.7,89,90,87,0.233,9.7,12.1,8.9,2.916,3.1,213,5.6,4.0,-0.00006,-0.00007,31.4,31.4,19,0,0,0.0,0.51,0.00,0.00
15min,AgWx,bigpiney,439,31MAR2019:02:15:00,16.3,12.57,15.3,14.3,12.8,14.3,11.9,90,91,89,0.264,10.3,12.1,9.3,3.266,2.9,216,7.0,3.6,-0.00007,-0.00008,31.4,31.5,19,0,0,0.0,0.51,0.00,0.00
15min,AgWx,bigpiney,439,31MAR2019:02:30:00,16.7,12.57,15.4,14.7,14.8,15.5,14.3,90,91,89,0.264,12.4,13.4,12.0,2.236,2.0,226,14,3.2,-0.00009,-0.00011,31.4,31.5,19,0,0,0.0,0.51,0.00,0.00
15min,AgWx,bigpiney,439,31MAR2019:02:45:00,17.4,12.56,17.6,16.9,16.0,17.0,14.8,90,91,90,0.293,13.6,14.6,12.2,2.411,2.3,242,10,2.8,-0.00009,-0.00011,31.4,31.5,19,0,0,0.0,0.51,0.00,0.00
15min,AgWx,bigpiney,439,31MAR2019:03:00:00,18.2,12.55,18.5,17.9,17.7,18.0,17.0,90,91,90,0.306,15.3,15.5,14.6,2.083,1.9,245,13,2.5,-0.00010,-0.00013,31.4,31.5,19,0,0,0.0,0.51,0.00,0.00
15min,AgWx,bigpiney,439,31MAR2019:03:15:00,19.1,12.55,20.4,19.9,19.0,19.9,17.9,90,91,90,0.332,16.7,17.5,15.5,4.604,2.8,281,27,4.7,-0.00009,-0.00010,31.4,31.5,19,0,0,0.0,0.51,0.00,0.00
15min,AgWx,bigpiney,439,31MAR2019:03:30:00,20.1,12.54,20.7,20.3,20.2,20.4,19.9,90,91,90,0.340,17.8,18.0,17.4,6.335,5.3,300,6.0,7.2,-0.00005,-0.00005,31.4,31.4,19,0,0,0.0,0.51,0.00,0.00
15min,AgWx,bigpiney,439,31MAR2019:03:45:00,21.0,12.53,20.9,20.6,20.5,20.7,20.3,91,91,90,0.345,18.2,18.4,18.0,6.905,6.3,295,6.3,7.6,-0.00004,-0.00004,31.4,31.5,19,0,0,0.0,0.51,0.00,0.00
15min,AgWx,bigpiney,439,31MAR2019:04:00:00,21.8,12.52,20.8,20.5,20.6,20.8,20.5,91,91,91,0.345,18.4,18.6,18.2,5.524,5.8,298,8.5,7.2,-0.00005,-0.00005,31.4,31.5,19,0,0,0.0,0.51,0.00,0.00
15min,AgWx,bigpiney,439,31MAR2019:04:15:00,22.2,12.49,20.9,20.3,20.3,20.5,20.0,91,92,91,0.347,18.1,18.4,17.8,7.256,4.8,315,12,7.3,-0.00006,-0.00007,31.4,31.5,19,0,0,0.0,0.51,0.00,0.00
15min,AgWx,bigpiney,439,31MAR2019:04:30:00,22.5,12.5,21.0,20.5,20.5,20.7,20.4,92,93,92,0.351,18.7,18.8,18.5,5.831,6.6,321,8.5,9.2,-0.00005,-0.00005,31.4,31.5,19,0,0,0.0,0.51,0.00,0.00
15min,AgWx,bigpiney,439,31MAR2019:04:45:00,22.9,12.49,20.7,20.0,20.4,20.6,20.0,93,94,93,0.348,18.7,18.9,18.5,3.836,5.9,314,5.9,7.2,-0.00005,-0.00006,31.4,31.4,19,0,1,0.0,0.51,0.00,0.00
15min,AgWx,bigpiney,439,31MAR2019:05:00:00,23.1,12.48,20.3,19.8,20.0,20.2,19.7,94,94,94,0.345,18.5,18.7,18.2,4.801,4.6,306,6.2,5.6,-0.00007,-0.00008,31.4,31.5,19,0,1,0.0,0.51,0.00,0.00
15min,AgWx,bigpiney,439,31MAR2019:05:15:00,23.3,12.45,19.5,19.2,19.5,19.8,19.1,94,94,94,0.336,18.0,18.3,17.6,5.174,4.7,311,7.9,5.5,-0.00007,-0.00007,31.4,31.5,19,0,1,0.0,0.51,0.00,0.00
15min,AgWx,bigpiney,439,31MAR2019:05:30:00,23.2,12.45,19.7,19.0,18.9,19.1,18.8,94,94,94,0.335,17.5,17.6,17.2,2.565,4.5,336,17,6.3,-0.00007,-0.00008,31.4,31.5,19,0,1,0.0,0.51,0.00,0.00
15min,AgWx,bigpiney,439,31MAR2019:05:45:00,23.2,12.44,19.5,18.9,19.0,19.1,18.9,94,94,94,0.332,17.6,17.7,17.4,1.578,1.8,338,39,4.0,-0.00012,-0.00015,31.4,31.4,19,0,1,0.0,0.51,0.00,0.00
15min,AgWx,bigpiney,439,31MAR2019:06:00:00,23.1,12.42,19.6,19.2,19.0,19.2,18.9,94,94,94,0.336,17.5,17.7,17.4,0.921,1.3,257,15,3.0,-0.00013,-0.00017,31.4,31.5,19,0,1,0.0,0.51,0.00,0.00
15min,AgWx,bigpiney,439,31MAR2019:06:15:00,23.1,12.4,18.9,18.3,18.6,19.2,18.3,94,94,93,0.323,17.1,17.7,16.7,3.749,2.8,3.6,13,3.8,-0.00009,-0.00011,31.4,31.5,19,0,1,0.0,0.51,0.00,0.00
15min,AgWx,bigpiney,439,31MAR2019:06:30:00,23.0,12.37,18.8,18.3,18.3,18.5,18.2,94,94,93,0.323,16.7,17.0,16.6,3.025,3.3,12,11,4.3,-0.00008,-0.00010,31.4,31.5,19,0,1,0.0,0.51,0.00,0.00
15min,AgWx,bigpiney,439,31MAR2019:06:45:00,22.8,12.36,19.0,18.4,18.3,18.4,18.2,93,94,93,0.324,16.7,16.8,16.6,1.798,2.4,351,17,3.7,-0.00010,-0.00012,31.4,31.4,19,0,1,0.0,0.51,0.00,0.00
15min,AgWx,bigpiney,439,31MAR2019:07:00:00,22.7,12.35,18.6,18.1,18.2,18.5,18.0,93,93,93,0.317,16.5,16.9,16.3,0,1.3,64,34,3.1,-0.00012,-0.00016,31.4,31.5,19,1,1,0.0,0.51,0.00,0.00